Location: Miss�
(46.9484°N, 0.1922°W)
Time: 02:26:25
(UTC+00:00)

Ariane Rocket - Pass Details

Date: 02 March 2021
Orbit: 759 x 771 km, 98.7° (Epoch: 12 April)

Event Time Altitude Azimuth Distance (km) Brightness Sun altitude
Exits shadow 19:19:26 24° 122° (ESE) 1,563 4.1 -16.4°
Maximum altitude 19:22:02 42° 67° (ENE) 1,100 3.4 -16.8°
Drops below altitude 10° 19:26:49 10° 358° (N) 2,323 5.6 -17.6°
Sets 19:29:14 0° 352° (N) 3,253 6.5 -18.0°
